Weather History for KHSP - October, 2010

Change the Weather History Date:

Monday, October 18, 2010

  Actual Average Record
Temperature  
Mean Temperature 60 °F -  
Max Temperature 66 °F 55 °F 75 °F (1998)
Min Temperature 55 °F 40 °F 28 °F (2001)
Degree Days  
Heating Degree Days 4    
Growing Degree Days 10 (Base 50)    
Moisture  
Dew Point 48 °F    
Average Humidity 68    
Maximum Humidity 73    
Minimum Humidity 63    
Precipitation  
Precipitation 0.00 in - - ()
Sea Level Pressure  
Sea Level Pressure 30.07 in    
Wind  
Wind Speed 13 mph (West)    
Max Wind Speed 16 mph    
Max Gust Speed 22 mph    
Visibility 10 miles    
Events      
Averages and records for this station are not official NWS values.
T = Trace of Precipitation, MM = Missing Value Source: NWS Daily Summary

Daily Weather History Graph

Daily Weather History Graph

Search for Another Location

Airport or City:

Trip Planner

Search our weather history database for the weather conditions in past years. The results will help you decide how hot, cold, wet, or windy it might be!

Date:

Astronomy

Oct. 18, 2010 Rise Set
Actual Time 7:30 AM EDT 6:37 PM EDT
Civil Twilight 7:04 AM EDT 7:04 PM EDT
Nautical Twilight 6:33 AM EDT 7:34 PM EDT
Astronomical Twilight 6:03 AM EDT 8:05 PM EDT
Moon 4:18 PM EDT (10/18) 3:21 AM EDT (10/18)
Length of Visible Light 12h 00m
Length of Day
11h 06m
Waxing Gibbous, 83% of the Moon is Illuminated
Oct 18
Waxing Gibbous
Oct 22
Full
Oct 30
Last Quarter
Nov 6
New
Nov 13
First Quarter

Hourly Weather History & Observations

Time (EDT) Temp. Dew Point Humidity Pressure Visibility Wind Dir Wind Speed Gust Speed Precip Events Conditions
12:00 AM 57.2 °F 48.2 °F 72% 30.10 in 10.0 mi West 13.8 mph 19.6 mph N/A   Scattered Clouds
12:20 AM 57.2 °F 48.2 °F 72% 30.10 in 10.0 mi West 12.7 mph 19.6 mph N/A   Mostly Cloudy
12:40 AM 57.2 °F 48.2 °F 72% 30.10 in 10.0 mi West 12.7 mph 17.3 mph N/A   Mostly Cloudy
1:00 AM 57.2 °F 48.2 °F 72% 30.09 in 10.0 mi West 13.8 mph 19.6 mph N/A   Scattered Clouds
1:20 AM 57.2 °F 46.4 °F 67% 30.09 in 10.0 mi West 13.8 mph - N/A   Clear
1:40 AM 57.2 °F 46.4 °F 67% 30.09 in 10.0 mi West 12.7 mph - N/A   Clear
2:00 AM 57.2 °F 46.4 °F 67% 30.09 in 10.0 mi West 13.8 mph - N/A   Clear
2:20 AM 57.2 °F 46.4 °F 67% 30.09 in 10.0 mi West 15.0 mph 20.7 mph N/A   Clear
2:40 AM 55.4 °F 46.4 °F 72% 30.09 in 10.0 mi West 15.0 mph 20.7 mph N/A   Clear
3:00 AM 55.4 °F 44.6 °F 67% 30.08 in 10.0 mi West 15.0 mph 21.9 mph N/A   Clear
3:20 AM 55.4 °F 44.6 °F 67% 30.07 in 10.0 mi West 16.1 mph - N/A   Clear
3:40 AM 55.4 °F 44.6 °F 67% 30.07 in 10.0 mi West 16.1 mph - N/A   Clear
4:00 AM 55.4 °F 44.6 °F 67% 30.06 in 10.0 mi West 15.0 mph 20.7 mph N/A   Clear
4:20 AM 55.4 °F 44.6 °F 67% 30.06 in 10.0 mi West 15.0 mph 20.7 mph N/A   Clear
4:40 AM 55.4 °F 44.6 °F 67% 30.06 in 10.0 mi West 15.0 mph - N/A   Clear
5:00 AM 55.4 °F 44.6 °F 67% 30.07 in 10.0 mi West 16.1 mph - N/A   Clear
5:20 AM 55.4 °F 44.6 °F 67% 30.07 in 10.0 mi West 13.8 mph - N/A   Clear
5:40 AM 55.4 °F 44.6 °F 67% 30.07 in 10.0 mi West 15.0 mph 20.7 mph N/A   Clear
6:00 AM 55.4 °F 44.6 °F 67% 30.08 in 10.0 mi West 15.0 mph 18.4 mph N/A   Clear
6:20 AM 55.4 °F 44.6 °F 67% 30.08 in 10.0 mi West 13.8 mph - N/A   Clear
6:40 AM 55.4 °F 44.6 °F 67% 30.08 in 10.0 mi West 13.8 mph - N/A   Clear
7:00 AM 55.4 °F 44.6 °F 67% 30.08 in 10.0 mi West 12.7 mph - N/A   Clear
7:20 AM 55.4 °F 44.6 °F 67% 30.08 in 10.0 mi West 13.8 mph - N/A   Clear
7:40 AM 55.4 °F 44.6 °F 67% 30.08 in 10.0 mi West 12.7 mph - N/A   Clear
8:00 AM 55.4 °F 44.6 °F 67% 30.09 in 10.0 mi West 12.7 mph - N/A   Clear
8:20 AM 55.4 °F 44.6 °F 67% 30.09 in 10.0 mi West 11.5 mph - N/A   Scattered Clouds
8:40 AM 55.4 °F 44.6 °F 67% 30.10 in 10.0 mi West 12.7 mph - N/A   Clear
9:20 AM 57.2 °F 46.4 °F 67% 30.11 in 10.0 mi West 10.4 mph - N/A   Clear
9:40 AM 57.2 °F 46.4 °F 67% 30.11 in 10.0 mi West 10.4 mph 16.1 mph N/A   Clear
10:00 AM 57.2 °F 46.4 °F 67% 30.11 in 10.0 mi West 8.1 mph - N/A   Clear
10:40 AM 59.0 °F 48.2 °F 67% 30.11 in 10.0 mi WSW 8.1 mph - N/A   Clear
11:00 AM 59.0 °F 48.2 °F 67% 30.10 in 10.0 mi West 11.5 mph - N/A   Clear
11:20 AM 59.0 °F 48.2 °F 67% 30.10 in 10.0 mi West 9.2 mph - N/A   Clear
11:40 AM 59.0 °F 48.2 °F 67% 30.09 in 10.0 mi WSW 11.5 mph - N/A   Clear
12:00 PM 59.0 °F 48.2 °F 67% 30.08 in 10.0 mi West 8.1 mph - N/A   Clear
12:20 PM 60.8 °F 48.2 °F 63% 30.08 in 10.0 mi West 11.5 mph - N/A   Clear
12:40 PM 60.8 °F 50.0 °F 68% 30.07 in 10.0 mi West 12.7 mph - N/A   Clear
1:00 PM 62.6 °F 51.8 °F 68% 30.06 in 10.0 mi West 12.7 mph - N/A   Clear
1:20 PM 64.4 °F 51.8 °F 64% 30.05 in 10.0 mi West 11.5 mph - N/A   Clear
1:40 PM 64.4 °F 53.6 °F 68% 30.04 in 10.0 mi West 11.5 mph 17.3 mph N/A   Clear
2:00 PM 64.4 °F 53.6 °F 68% 30.03 in 10.0 mi West 12.7 mph - N/A   Clear
2:20 PM 64.4 °F 53.6 °F 68% 30.02 in 10.0 mi West 8.1 mph - N/A   Clear
2:40 PM 64.4 °F 53.6 °F 68% 30.01 in 10.0 mi West 12.7 mph 18.4 mph N/A   Clear
3:00 PM 64.4 °F 53.6 °F 68% 30.01 in 10.0 mi West 13.8 mph 19.6 mph N/A   Clear
3:20 PM 64.4 °F 53.6 °F 68% 30.01 in 10.0 mi West 15.0 mph 18.4 mph N/A   Clear
3:40 PM 64.4 °F 53.6 °F 68% 30.01 in 10.0 mi West 10.4 mph 19.6 mph N/A   Clear
4:00 PM 66.2 °F 55.4 °F 68% 30.01 in 10.0 mi West 12.7 mph - N/A   Clear
4:20 PM 64.4 °F 55.4 °F 73% 30.00 in 10.0 mi West 10.4 mph - N/A   Clear
4:40 PM 64.4 °F 55.4 °F 73% 30.00 in 10.0 mi WSW 12.7 mph - N/A   Clear
5:00 PM 64.4 °F 55.4 °F 73% 29.99 in 10.0 mi West 13.8 mph - N/A   Clear
5:20 PM 64.4 °F 53.6 °F 68% 29.99 in 10.0 mi West 10.4 mph - N/A   Clear
5:40 PM 64.4 °F 53.6 °F 68% 29.99 in 10.0 mi West 10.4 mph - N/A   Scattered Clouds
6:00 PM 64.4 °F 53.6 °F 68% 29.99 in 10.0 mi WSW 8.1 mph - N/A   Clear
6:20 PM 62.6 °F 53.6 °F 72% 30.00 in 10.0 mi WSW 8.1 mph - N/A   Clear
6:40 PM 62.6 °F 53.6 °F 72% 30.00 in 10.0 mi West 10.4 mph - N/A   Clear
7:00 PM 60.8 °F 53.6 °F 77% 30.00 in 10.0 mi WSW 11.5 mph - N/A   Scattered Clouds
7:20 PM 60.8 °F 53.6 °F 77% 29.99 in 10.0 mi West 12.7 mph - N/A   Mostly Cloudy
7:40 PM 62.6 °F 53.6 °F 72% 30.00 in 10.0 mi West 10.4 mph 16.1 mph N/A   Mostly Cloudy
8:00 PM 60.8 °F 53.6 °F 77% 30.00 in 10.0 mi West 10.4 mph - N/A   Mostly Cloudy
8:20 PM 60.8 °F 53.6 °F 77% 30.00 in 10.0 mi WSW 9.2 mph - N/A   Scattered Clouds
8:40 PM 60.8 °F 53.6 °F 77% 30.00 in 10.0 mi WSW 8.1 mph - N/A   Clear
9:00 PM 60.8 °F 53.6 °F 77% 30.00 in 10.0 mi WSW 6.9 mph - N/A   Mostly Cloudy
9:20 PM 59.0 °F 53.6 °F 82% 30.00 in 10.0 mi West 4.6 mph - N/A   Mostly Cloudy
9:40 PM 60.8 °F 53.6 °F 77% 30.00 in 10.0 mi Calm Calm - N/A   Mostly Cloudy
10:00 PM 60.8 °F 53.6 °F 77% 30.00 in 10.0 mi SSW 4.6 mph - N/A   Scattered Clouds
10:20 PM 60.8 °F 53.6 °F 77% 30.00 in 10.0 mi SSW 4.6 mph - N/A   Mostly Cloudy
10:40 PM 60.8 °F 53.6 °F 77% 30.00 in 10.0 mi South 3.5 mph - N/A   Scattered Clouds
11:00 PM 59.0 °F 53.6 °F 82% 30.00 in 10.0 mi South 4.6 mph - N/A   Mostly Cloudy
11:20 PM 57.2 °F 53.6 °F 88% 29.99 in 10.0 mi South 5.8 mph - N/A   Mostly Cloudy
11:40 PM 57.2 °F 55.4 °F 94% 29.99 in 10.0 mi South 5.8 mph - N/A   Scattered Clouds